DELTA 1 DEB, 10865

Orbit data source: Space-Track

DELTA 1 DEB, 10865 is space debris in SSO originally from a launch on Thu, 29 Jul 1976 UTC launched from the Air Force Western Test Range (AFWTR). Debris objects in space refer to the collection of defunct objects orbiting the Earth. Examples of debris include non-operational satellites, rocket bodies, and fragments generated from explosions, collisions, or faulty payload assembly.

Loading next visibility...
Identifier
10865, 1976-077CT
Orbit
SSO
Country
Flag of USUS
Related business
Manufacturer
Unknown
Mission
Spacecraft
Bus & Motor
Unknown
Mass
Unknown
Launch date (UTC)
1976-07-29 (49 years ago)
Launch vehicle
Unknown
Launch site
Air Force Western Test Range (AFWTR)
Object type
Payload
Rocket body
Debris
Shape & HBR
Unknown shape, 0.1 m
Radar Cross Section
Small (<0.1 m²)

Expand to show TLE details & history
Last TLE update: 5 days ago

TLE from 5 days ago
0 DELTA 1 DEB
1 10865U 76077CT  25285.33606277 -.00000022  00000-0  20869-3 0  9996
2 10865 102.3594 231.6102 0111324 228.3189 287.0719 12.20353868192640
Epoch: 2025-10-12T08:03Z
TLE epoch observation values (Epoch: 2025-10-12T08:03:55.823Z)
Latitude
25.22201°
Longitude
-84.63167°
Altitude
1,568.558 km
Speed
7.097 km/s
True Right ascension
03h 50m 01s
True Declination
25° 06' 12"
Sunlit
Object was in full shadow at epoch
Visualization orbit readout
Latitude
Unknown
Longitude
Unknown
Altitude
Unknown
Speed
Unknown
Apparent Right ascension
Unknown
Apparent Declination
Unknown
Sunlit
N/A
Visualization observer readout
Local Sidereal Time
14:53:46
Azimuth
Unknown
Elevation
Unknown
Doppler factor
Unknown
Orbital elements
Apogee altitude
1,677.311 km
Perigee altitude
1,499.933 km
Semi-major axis
7,966.759 km
Eccentricity
0.01113
Inclination
102.3594°
RAAN
231.6102°
Arg. of periapsis
228.3189°
True anomaly
285.84752°
Mean anomaly
287.0719°
Eccentric anomaly
286.4602°
Mean motion
3.05225 °/min
Orbital period
117.95 mins
BSTAR
0.00020869
Loading maneuver chart data...
Computing Atmospheric mass density...
Loading historical data...
Loading historical data...
Loading historical data...
Loading historical data...
Loading historical data...
Loading historical data...
Loading historical data...

Documentation

Showing up to 5 results
|